TECHNOSAT (42829 NORAD) Tracking and Keplerian Element Data

This shows tracking and keplerian element data for the satellite.

Feedback or suggestion? Click here.




ElementValue
Catalog42829
NameTECHNOSAT
Epoch Orbit17802
Epoch Day295.17250021
Epoch Year2020
RAAN170.9152
Inclination97.4995
Eccentricity0.0013052
Argument of Perigee221.3163
Mean Anonmoly138.7069
Mean Motion14.91145586
Decay Rate7.2E-07
L11 42829U 17042E 20295.17250021 .00000072 00000-0 12603-4 0 9990
L22 42829 97.4995 170.9152 0013052 221.3163 138.7069 14.91145586178020

Live tracking and technical data element details for TECHNOSAT (NORAD 42829). TECHNOSAT can be tracked NOW for your location showing map with azimuth and elevation plus other details from your city location.

Track the satellite on the map from your city or location and see movement details for azimuth, elevation, latitude, longitude, range, height, and movement on the map or in text.







IsCatalogInMostPopularTable: catalog: 42829, numindb: 593
Update: records affected: 1



GetName: 42829 TECHNOSAT

Hit Count: updated at: Thu, 22 Oct 2020 03:25:18 GMT